Location: Atherton
(17.2661°S, 145.4859°E)
Time: 23:18:05
(UTC+10:00)

Transit 2A - Pass Details

Date: 24 June 2025
Orbit: 598 x 948 km, 66.7° (Epoch: 19 July)

Event Time Altitude Azimuth Distance (km) Brightness Sun altitude
Rises 10:13:14 0° 323° (NW) 3,381 9.5 38.8°
Reaches altitude 10° 10:15:44 10° 317° (NW) 2,500 8.9 39.2°
Maximum altitude 10:21:16 44° 246° (WSW) 1,248 7.2 40.0°
Drops below altitude 10° 10:27:11 10° 175° (S) 2,666 8.5 40.8°
Sets 10:29:56 0° 168° (SSE) 3,629 9.2 41.2°
